Location: Killarney Provincial Park Observatory
(46.0124°N, 81.4000°W)
Time: 20:50:16
(UTC-05:00)

Iridium 22 - Visible Passes

Search period start: 22 November 2017 00:00
Search period end: 02 December 2017 00:00
Orbit: 776 x 779 km, 86.4° (Epoch: 22 November)

Date Brightness Start Highest point End Pass type
(mag) Time Alt. Az. Time Alt. Az. Time Alt. Az.
25 Nov 8.8 07:08:11 10° ENE 07:08:23 10° ENE 07:08:35 10° ENE visible
28 Nov 8.3 07:05:27 10° ESE 07:08:12 15° ENE 07:10:58 10° NE visible
01 Dec 8.1 07:04:20 10° SE 07:08:04 20° ENE 07:11:50 10° NNE visible
